Home   Weather   Canberra   Past weeks
Flag for Australia

Past Weather in Canberra, Australian Capital Territory, Australia — Yesterday and Last 2 Weeks

Now
66 °F

Passing clouds.


Feels Like: 66 °F
Forecast: 76 / 57 °F
Wind: 5 mph from Southeast

Location: Canberra Airport

Current Time: Mar 19, 2019 at 9:44:49 pm

Latest Report: Mar 19, 2019 at 9:00 pm


Visibility: N/A

Pressure: 30.01 "Hg (28.05 "Hg at 577m altitude)

Humidity: 73%

Dew Point: 57 °F

Location of CanberraLocation

Past Weather in Canberra — Graph

°F

Canberra Temperature Yesterday

Maximum temperature yesterday: 77 °F (at 2:00 pm)
Minimum temperature yesterday: 55 °F (at 2:37 am)
Average temperature yesterday: 65 °F

High & Low Weather Summary for the Past Weeks

 TemperatureHumidityPressure
High84 °F (Mar 5, 6:00 pm)100% (Mar 8, 5:30 am)30.27 "Hg (Mar 8, 5:30 am)
Low39 °F (Mar 7, 6:00 am)23% (Mar 9, 3:00 pm)29.77 "Hg (Mar 11, 5:00 pm)
Average66 °F63%30.01 "Hg
* Reported Mar 4 8:00 pm — Mar 19 8:00 pm, Canberra. Weather by CustomWeather, © 2019

Note: Actual official high and low records may vary slightly from our data, if they occured in-between our weather recording intervals... More about our weather records

Advertising

Canberra Weather History for the Previous 24 Hours

Scroll right to see more
 ConditionsComfort  
Time TempWeatherWind HumidityBarometerVisibility
8:00 pm
Tue, Mar 19
68 °FMostly cloudy.9 mph69%29.98 "HgN/A
7:30 pm70 °FPartly cloudy.10 mph64%29.98 "HgN/A
7:00 pm70 °FMore clouds than sun.9 mph64%29.98 "HgN/A
6:30 pm72 °FScattered clouds.13 mph57%29.95 "HgN/A
6:00 pm72 °FScattered clouds.10 mph61%29.95 "HgN/A
5:30 pm73 °FMore clouds than sun.10 mph57%29.95 "HgN/A
5:00 pm73 °FOvercast.9 mph61%29.95 "HgN/A
4:30 pm73 °FOvercast.10 mph61%29.95 "HgN/A
4:00 pm70 °FSprinkles. More clouds than sun.12 mph73%29.95 "HgN/A
3:30 pm73 °FBroken clouds.20 mph57%29.95 "HgN/A
3:00 pm77 °FBroken clouds.13 mph47%29.95 "HgN/A
2:30 pm75 °FBroken clouds.14 mph54%29.95 "HgN/A
2:00 pm77 °FScattered clouds.12 mph47%29.95 "HgN/A
1:30 pm75 °FBroken clouds.15 mph54%29.98 "HgN/A
1:00 pm75 °FBroken clouds.12 mph54%29.98 "HgN/A
12:00 pm73 °FMore clouds than sun.9 mph57%30.01 "HgN/A
11:30 am72 °FMostly cloudy.7 mph57%30.01 "HgN/A
11:00 am72 °FBroken clouds.9 mph61%30.01 "HgN/A
10:30 am70 °FBroken clouds.12 mph64%30.01 "HgN/A
10:00 am68 °FMore clouds than sun.7 mph69%30.01 "HgN/A
9:00 am66 °FMostly cloudy.7 mph78%30.01 "HgN/A
8:30 am64 °FOvercast.8 mph78%30.01 "HgN/A
8:00 am64 °FPartly sunny.9 mph83%29.98 "HgN/A
7:30 am63 °FOvercast.7 mph88%29.98 "HgN/A
7:00 am63 °FOvercast.8 mph88%29.98 "HgN/A
6:30 am61 °FPassing clouds.5 mph94%29.98 "HgN/A
6:00 am61 °FPassing clouds.7 mph88%29.98 "HgN/A
5:30 am63 °FOvercast.5 mph88%29.95 "HgN/A
5:00 am63 °FOvercast.5 mph83%29.95 "HgN/A
4:30 am63 °FOvercast.6 mph88%29.95 "HgN/A
4:00 am63 °FPassing clouds.5 mph83%29.95 "HgN/A
3:30 am63 °FOvercast.6 mph88%29.95 "HgN/A
3:00 am63 °FOvercast.No wind88%29.98 "HgN/A
2:30 am63 °FMostly cloudy.No wind88%29.98 "HgN/A
2:00 am63 °FMostly cloudy.2 mph88%29.98 "HgN/A
1:30 am63 °FMostly cloudy.5 mph88%29.98 "HgN/A
1:00 am63 °FOvercast.6 mph88%29.98 "HgN/A
12:30 am61 °FPassing clouds.3 mph94%30.01 "HgN/A
12:00 am61 °FPassing clouds.6 mph88%29.98 "HgN/A
11:30 pm
Mon, Mar 18
63 °FPassing clouds.6 mph83%30.01 "HgN/A
11:00 pm63 °FClear.No wind83%30.01 "HgN/A
10:30 pm64 °FClear.6 mph78%29.98 "HgN/A
10:00 pm64 °FClear.8 mph78%29.98 "HgN/A
9:30 pm64 °FClear.8 mph78%29.98 "HgN/A
9:00 pm66 °FClear.9 mph78%29.98 "HgN/A
Weather by CustomWeather, © 2019

See weather overview